Regional Weather Roundup
Issued by NWS

Home | Current Version | Previous Version | Graphics & Text | Print | Product List | Glossary On
Versions: 1 2 3 4 5 6 7 8 9 10 11 12 13 14 15 16 17 18 19 20 21 22 23 24 25 26 27 28 29 30 31 32 33 34 35 36 37 38 39 40 41 42 43 44 45 46 47 48 49 50
000
ASUS43 KOAX 262210
RWRNE

WEATHER ROUNDUP FOR NEBRASKA
NATIONAL WEATHER SERVICE OMAHA NE
500 PM CDT WED JUL 26 2017

NOTES: SATELLITE DATA IS BEING USED TO AUGMENT CLOUD COVER ABOVE
       12000 FEET.
       "FAIR" INDICATES FEW OR NO CLOUDS BELOW 12,000 FEET WITH NO
       SIGNIFICANT WEATHER AND/OR OBSTRUCTIONS TO VISIBILITY.


NEZ001>004-019>022-054>056-262300-
NEBRASKA PANHANDLE

CITY           SKY/WX    TMP DP  RH WIND       PRES   REMARKS
SCOTTSBLUFF    CLOUDY    82  58  43 NE12      30.18F
ALLIANCE       CLOUDY    79  60  52 NE13      30.17S
CHADRON        CLOUDY    85  53  33 E14       30.15S
GORDON         FAIR      81  53  37 NE13      30.16S
KIMBALL        PTSUNNY   79  58  49 NE16G24   30.22F
SIDNEY         CLOUDY    81  60  48 NE16G25   30.19F
$$

NEZ057>060-069>072-079>082-262300-
SOUTHWEST NEBRASKA

CITY           SKY/WX    TMP DP  RH WIND       PRES   REMARKS
NORTH PLATTE   CLOUDY    77  67  71 NE6       30.09S
IMPERIAL       CLOUDY    82  63  52 NE17      30.10S
LEXINGTON      PTSUNNY   80  69  70 NE13      30.05F
MCCOOK         CLOUDY    79  69  71 N15       30.06S
OGALLALA       CLOUDY    82  63  52 E10       30.12F
$$

NEZ005>010-023>029-035>040-094-262300-
NORTH CENTRAL NEBRASKA

CITY           SKY/WX    TMP DP  RH WIND       PRES   REMARKS
VALENTINE      PTSUNNY   87  58  37 E18       30.10S
AINSWORTH      PTSUNNY   81  68  64 NE8       30.10S
BROKEN BOW     CLOUDY    82  67  60 NE10      30.06F
O`NEILL        PTSUNNY   81  71  71 NE16      30.06S
ORD            PTSUNNY   81  68  64 N9        30.03S
THEDFORD       CLOUDY    82  66  58 NE13G18   30.11S
$$

NEZ041-046>049-061>064-073>077-083>087-262300-
SOUTH CENTRAL NEBRASKA

CITY           SKY/WX    TMP DP  RH WIND       PRES   REMARKS
GRAND ISLAND   CLOUDY    79  73  82 NE13      30.02R
AURORA         CLOUDY    78  74  89 NE9       30.01S
HASTINGS       CLOUDY    77  70  79 NE12      30.03R
HEBRON         FAIR      84  72  67 CALM      29.97S HX  90
HOLDREGE       CLOUDY    75  70  84 NE9       30.04S
KEARNEY        PTSUNNY   80  71  74 NE14      30.03S
YORK           PTSUNNY   77  73  88 NE12      30.01S
$$

NEZ011>018-030>034-042>045-262300-
NORTHEAST NEBRASKA

CITY           SKY/WX    TMP DP  RH WIND       PRES   REMARKS
NORFOLK        PTSUNNY   82  68  62 E10       30.01S
ALBION         PTSUNNY   80  72  75 E7        30.03S
BLAIR          RAIN      73  73  97 N5        30.00S
COLUMBUS       FAIR      78  73  84 NE9       30.01S
FREMONT        CLOUDY    76  74  91 NE3       30.00F
TEKAMAH        PTSUNNY   79  73  82 SE3       29.98S
WAYNE          PTSUNNY   81  75  82 NE7       30.01R
$$

NEZ050>053-065>068-078-088>093-262300-
SOUTHEAST NEBRASKA

CITY           SKY/WX    TMP DP  RH WIND       PRES   REMARKS
LINCOLN        TSTM      73  72  96 N7        30.00R VSB 3/4
OMAHA EPPLEY   LGT RAIN  76  72  87 CALM      29.98F
BEATRICE       PTSUNNY   83  72  69 SW6       29.97R
FALLS CITY     FAIR      81  75  82 SE7       29.95F
NEBRASKA CITY  CLOUDY    79  79  99 SE3       29.98R THUNDER
PLATTSMOUTH    TSTM      75  73  96 E3        29.98S
$$

NEZ044-045-051>053-067-262300-
OMAHA AREA

CITY           SKY/WX    TMP DP  RH WIND       PRES   REMARKS
OMAHA EPPLEY   LGT RAIN  76  72  87 CALM      29.98F
BLAIR          RAIN      73  73  97 N5        30.00S
FREMONT        CLOUDY    76  74  91 NE3       30.00F
MILLARD        CLOUDY    76  75  95 CALM      29.98S
OFFUTT AFB     CLOUDY    76  74  93 NE6       29.98S
PLATTSMOUTH    TSTM      75  73  96 E3        29.98S
WAHOO          RAIN      74  73  97 NE3       29.99S
$$




USA.gov is the U.S. government's official web portal to all federal, state and local government web resources and services.